EA4TN Weather Reports


Display with metric or nautical units.
time (UTC)temp
F
wind
direction
speed
MPH
gust
MPH
rain 1hr
in
rain 24hr
in
rain mn
in
humidity
%
barometer
mb
20260505181015 65 349 5.0 12.0 0.00 0.00 0.00 34 1011.2
20260505180016 65 329 3.0 9.0 0.00 0.00 0.00 35 1011.1
20260505175015 64 287 3.0 10.0 0.00 0.00 0.00 35 1011.0
20260505174015 63 313 4.0 9.0 0.00 0.00 0.00 36 1011.0
20260505173016 63 322 4.0 11.0 0.00 0.00 0.00 36 1011.0
20260505172016 64 332 4.0 9.0 0.00 0.00 0.00 36 1011.0
20260505171015 64 303 5.0 11.0 0.00 0.00 0.00 35 1011.2
20260505170015 65 295 5.0 13.0 0.00 0.00 0.00 34 1011.2
20260505165015 65 312 5.0 11.0 0.00 0.00 0.00 34 1011.2
20260505164016 65 329 4.0 10.0 0.00 0.00 0.00 33 1011.1
20260505163015 65 310 4.0 9.0 0.00 0.00 0.00 32 1011.0
20260505162016 66 307 8.0 14.0 0.00 0.00 0.00 31 1011.1
20260505161055 66 349 5.0 13.0 0.00 0.00 0.00 32 1011.1
20260505153016 67 277 5.0 13.0 0.00 0.00 0.00 31 1011.3
20260505152016 67 311 3.0 10.0 0.00 0.00 0.00 29 1011.3
20260505151016 66 272 5.0 13.0 0.00 0.00 0.00 31 1011.4
20260505125015 64 252 5.0 10.0 0.00 0.00 0.00 36 1012.3
20260505124016 64 263 6.0 12.0 0.00 0.00 0.00 38 1012.3
20260505123036 63 292 4.0 12.0 0.00 0.00 0.00 40 1012.3
20260505122016 63 276 5.0 12.0 0.00 0.00 0.00 41 1012.4
20260505121016 62 268 6.0 13.0 0.00 0.00 0.00 41 1012.5
20260505120016 63 307 5.0 13.0 0.00 0.00 0.00 42 1012.6
20260505115015 64 275 7.0 12.0 0.00 0.00 0.00 42 1012.6
20260505114036 62 271 5.0 12.0 0.00 0.00 0.00 45 1012.7
20260505112015 62 228 3.0 8.0 0.00 0.00 0.00 44 1012.8
20260505111016 61 275 4.0 10.0 0.00 0.00 0.00 46 1012.9
20260505102016 62 265 5.0 10.0 0.00 0.00 0.00 43 1013.1
20260505101016 62 270 5.0 10.0 0.00 0.00 0.00 43 1013.3
20260505100015 61 314 3.0 8.0 0.00 0.00 0.00 45 1013.2
20260505095036 60 303 3.0 7.0 0.00 0.00 0.00 46 1013.1
20260505094016 60 289 3.0 8.0 0.00 0.00 0.00 46 1013.2
20260505093016 60 276 4.0 8.0 0.00 0.00 0.00 47 1013.2
20260505092016 60 254 2.0 5.0 0.00 0.00 0.00 50 1013.2
20260505091016 60 255 1.0 6.0 0.00 0.00 0.00 50 1013.2
20260505090036 60 137 3.0 8.0 0.00 0.00 0.00 52 1013.2
20260505085016 59 187 3.0 6.0 0.00 0.00 0.00 57 1013.3
20260505084036 59 203 2.0 5.0 0.00 0.00 0.00 56 1013.3
20260505083016 58 276 2.0 3.0 0.00 0.00 0.00 59 1013.3
20260505082016 57 249 1.0 6.0 0.00 0.00 0.00 62 1013.3
20260505081015 57 229 3.0 6.0 0.00 0.00 0.00 63 1013.3
20260505080036 56 270 2.0 6.0 0.00 0.00 0.00 63 1013.3
20260505075016 56 249 2.0 4.0 0.00 0.00 0.00 65 1013.3
20260505074016 55 110 3.0 5.0 0.00 0.00 0.00 68 1013.3
20260505073036 54 269 1.0 4.0 0.00 0.00 0.00 69 1013.4
20260505072036 54 250 2.0 4.0 0.00 0.00 0.00 67 1013.3
20260505071036 54 258 2.0 3.0 0.00 0.00 0.00 66 1013.4
20260505070016 54 259 1.0 3.0 0.00 0.00 0.00 68 1013.3
20260505065016 54 213 2.0 3.0 0.00 0.00 0.00 66 1013.4
20260505064016 53 230 1.0 4.0 0.00 0.00 0.00 69 1013.3
20260505063036 52 242 1.0 3.0 0.00 0.00 0.00 71 1013.2
20260505062016 50 242 1.0 2.0 0.00 0.00 0.00 74 1013.0
20260505061016 50 242 0.0 3.0 0.00 0.00 0.00 75 1013.1
20260505060016 49 242 1.0 3.0 0.00 0.00 0.00 77 1012.9
20260505055016 49 0.0 0.0 0.00 0.00 0.00 78 1012.7
20260505054016 49 0.0 0.0 0.00 0.00 0.00 78 1012.8
20260505053016 49 0.0 2.0 0.00 0.00 0.00 78 1012.7
20260505052016 49 242 0.0 3.0 0.00 0.00 0.00 77 1012.7
20260505051016 49 242 1.0 3.0 0.00 0.00 0.00 77 1012.6
20260505041016 50 243 0.0 2.0 0.00 0.00 0.00 72 1012.8
20260505040016 50 243 1.0 3.0 0.00 0.00 0.00 72 1012.8
20260505035016 51 243 1.0 2.0 0.00 0.00 0.00 71 1012.7
20260505034016 51 0.0 0.0 0.00 0.00 0.00 71 1012.7
20260505033036 51 243 1.0 3.0 0.00 0.00 0.00 70 1012.7
20260505032016 52 243 2.0 3.0 0.00 0.00 0.00 69 1012.9
20260505031016 52 237 2.0 4.0 0.00 0.00 0.00 67 1012.9
20260505030016 53 256 2.0 4.0 0.00 0.00 0.00 64 1012.9
20260505025016 53 0.0 0.0 0.00 0.00 0.00 63 1013.0
20260505024016 53 316 0.0 2.0 0.00 0.00 0.00 63 1013.0
20260505023056 53 256 1.0 3.0 0.00 0.00 0.00 63 1013.1
20260505022016 53 280 1.0 3.0 0.00 0.00 0.00 62 1013.1
20260505021016 53 0.0 3.0 0.00 0.00 0.00 62 1013.1
20260505020016 54 278 1.0 2.0 0.00 0.00 0.00 61 1013.2
20260505015016 54 337 2.0 4.0 0.00 0.00 0.00 60 1013.2
20260505014016 54 340 1.0 5.0 0.00 0.00 0.00 60 1013.3
20260505013016 54 319 1.0 4.0 0.00 0.00 0.00 60 1013.3
20260505012016 55 23 1.0 7.0 0.00 0.00 0.00 59 1013.3
20260505011016 55 302 2.0 6.0 0.00 0.00 0.00 60 1013.2
20260505010016 54 310 3.0 6.0 0.00 0.00 0.00 61 1013.3
20260505005016 53 301 1.0 3.0 0.00 0.00 0.00 65 1013.2
20260505004016 54 218 1.0 3.0 0.00 0.00 0.00 65 1013.4
20260505003016 54 250 1.0 4.0 0.00 0.00 0.00 64 1013.3
20260505002016 54 293 0.0 2.0 0.00 0.00 0.00 64 1013.4
20260505001016 54 293 1.0 2.0 0.00 0.00 0.00 64 1013.3
20260505000016 54 279 1.0 4.0 0.00 0.00 0.00 65 1013.3
20260504235015 54 193 2.0 4.0 0.00 0.00 0.00 67 1013.4
20260504234016 54 225 2.0 4.0 0.00 0.00 0.00 67 1013.4
20260504233016 54 209 2.0 3.0 0.00 0.00 0.00 66 1013.3
20260504232016 54 194 2.0 5.0 0.00 0.00 0.00 66 1013.3
20260504231016 55 191 2.0 5.0 0.00 0.00 0.00 64 1013.2
20260504230016 55 198 1.0 4.0 0.00 0.00 0.00 63 1013.2
20260504225015 55 0.0 0.0 0.00 0.00 0.00 63 1013.1
20260504224016 55 0.0 0.0 0.00 0.00 0.00 63 1013.0
20260504223015 56 201 0.0 2.0 0.00 0.00 0.00 62 1013.0
20260504222035 56 195 1.0 3.0 0.00 0.00 0.00 62 1013.2
20260504221015 56 239 1.0 3.0 0.00 0.00 0.00 61 1013.2
20260504220136 57 245 0.0 2.0 0.00 0.00 0.00 60 1013.2
20260504215016 57 246 1.0 2.0 0.00 0.00 0.00 59 1013.2
20260504214015 58 219 1.0 3.0 0.00 0.00 0.00 58 1013.3
20260504213015 58 233 1.0 3.0 0.00 0.00 0.00 56 1013.3
20260504212036 59 269 2.0 5.0 0.00 0.00 0.00 55 1013.2
20260504211015 59 281 1.0 3.0 0.00 0.00 0.00 55 1013.1
20260504210016 59 297 2.0 3.0 0.00 0.00 0.00 55 1013.1
20260504205036 59 295 2.0 4.0 0.00 0.00 0.00 55 1013.0
20260504204016 59 289 2.0 6.0 0.00 0.00 0.00 56 1012.9
20260504203036 59 304 2.0 6.0 0.00 0.00 0.00 55 1012.8
20260504202016 59 308 2.0 4.0 0.00 0.00 0.00 55 1012.7
20260504201016 60 301 3.0 7.0 0.00 0.00 0.00 55 1012.5
20260504200156 60 303 2.0 5.0 0.00 0.00 0.00 55 1012.3
20260504195035 60 314 2.0 5.0 0.00 0.00 0.00 54 1012.2
20260504194016 60 317 2.0 5.0 0.00 0.00 0.00 53 1011.9
20260504193016 60 301 2.0 5.0 0.00 0.00 0.00 53 1011.6
20260504192015 61 295 2.0 5.0 0.00 0.00 0.00 53 1011.7
20260504191016 62 324 3.0 8.0 0.00 0.00 0.00 52 1011.5
20260504190016 62 316 6.0 13.0 0.00 0.00 0.00 50 1011.5
20260504185015 64 328 5.0 9.0 0.00 0.00 0.00 49 1011.5
20260504184016 64 332 3.0 9.0 0.00 0.00 0.00 49 1011.4
20260504183016 65 293 5.0 9.0 0.00 0.00 0.00 48 1011.3
20260504182036 65 325 3.0 7.0 0.00 0.00 0.00 48 1011.3